NEODyS-2

Near Earth Objects - Dynamic Site
NEODyS ∴ Observatories ∴ Site 691 ∴ Obs & residuals
Contact »
691  ▹ 
OBSERVATIONS AND RESIDUALS

691-Steward Observatory, Kitt Peak-Spacewatch

Detections | Residuals | Detections & Residuals

[1-200] [201-400] [401-600] [601-800] [801-1000] [1001-1200] [1201-1400] [1401-1600] [1601-1800] [1801-2000] [2001-2200] [2201-2400] [2401-2600] [2601-2800] [2801-3000] [3001-3200] [3201-3400] [3401-3600] [3601-3800] [3801-4000] [4001-4200] [4201-4400] [4401-4600] [4601-4800] [4801-5000] [5001-5200] [5201-5400] [5401-5600] [5601-5800] [5801-6000] [6001-6200] [6201-6400] [6401-6600] [6601-6800] [6801-7000] [7001-7200] [7201-7400] [7401-7600] [7601-7800] [7801-8000] [8001-8200] [8201-8400] [8401-8600] [8601-8800] [8801-9000] [9001-9200] [9201-9400] [9401-9600] [9601-9800] [9801-10000] [10001-10200] [10201-10400] [10401-10600] [10601-10800] [10801-11000] [11001-11200] [11201-11400] [11401-11600] [11601-11800] [11801-12000] [12001-12200] [12201-12400] [12401-12600] [12601-12800] [12801-13000] [13001-13200] [13201-13400] [13401-13600] [13601-13800] [13801-14000] [14001-14200] [14201-14400] [14401-14600] [14601-14800] [14801-15000] [15001-15200] [15201-15400] [15401-15600] [15601-15800] [15801-16000] [16001-16200] [16201-16400] [16401-16600] [16601-16800] [16801-17000] [17001-17200] [17201-17400] [17401-17600] [17601-17800] [17801-18000] [18001-18200] [18201-18400] [18401-18600] [18601-18800] [18801-19000] [19001-19200] [19201-19400] [19401-19600] [19601-19800] [19801-20000] [20001-20200] [20201-20400] [20401-20600] [20601-20800] [20801-21000] [21001-21200] [21201-21400] [21401-21600] [21601-21800] [21801-22000] [22001-22200] [22201-22400] [22401-22600] [22601-22800] [22801-23000] [23001-23200] [23201-23400] [23401-23600] [23601-23800] [23801-24000] [24001-24200] [24201-24400] [24401-24600] [24601-24800] [24801-25000] [25001-25200] [25201-25400] [25401-25600] [25601-25800] [25801-26000] [26001-26200] [26201-26400] [26401-26600] [26601-26800] [26801-27000] [27001-27200] [27201-27400] [27401-27600] [27601-27800] [27801-28000] [28001-28200] [28201-28400] [28401-28600] [28601-28800] [28801-29000] [29001-29200] [29201-29400] [29401-29600] [29601-29800] [29801-30000] [30001-30200] [30201-30400] [30401-30600] [30601-30800] [30801-31000] [31001-31200] [31201-31400] [31401-31600] [31601-31800] [31801-32000] [32001-32200] [32201-32400] [32401-32600] [32601-32800] [32801-33000] [33001-33200] [33201-33400] [33401-33600] [33601-33800] [33801-34000] [34001-34200] [34201-34400] [34401-34600] [34601-34800] [34801-35000] [35001-35200] [35201-35400] [35401-35600] [35601-35800] [35801-36000] [36001-36200] [36201-36400] [36401-36600] [36601-36800] [36801-37000] [37001-37200] [37201-37400] [37401-37600] [37601-37800] [37801-38000] [38001-38200] [38201-38400] [38401-38600] [38601-38800] [38801-39000] [39001-39200] [39201-39400] [39401-39600] [39601-39800] [39801-40000] [40001-40200] [40201-40400] [40401-40600] [40601-40800] [40801-41000] [41001-41200] [41201-41400] [41401-41600] [41601-41800] [41801-42000] [42001-42200] [42201-42400] [42401-42600] [42601-42800] [42801-43000] [43001-43200] [43201-43400] [43401-43600] [43601-43800] [43801-44000] [44001-44200] [44201-44400] [44401-44600] [44601-44800] [44801-45000] [45001-45200] [45201-45400] [45401-45600] [45601-45800] [45801-46000] [46001-46200] [46201-46400] [46401-46600] [46601-46800] [46801-47000] [47001-47200] [47201-47400] [47401-47600] [47601-47800] [47801-48000] [48001-48200] [48201-48400] [48401-48600] [48601-48800] [48801-49000] [49001-49200] [49201-49400] [49401-49600] [49601-49800] [49801-50000] [50001-50200] [50201-50388]

Designation T Tech N Date Right Ascension Declination Apparent Magnitude Star Catalog Site code χ Used A Used M
yr-mo-day precision hr:min:sec precision rms F bias residual deg min sec precision rms F bias residual mag/col rms residual
1993QA O c 1993-08-17.29999 1.000E-05 21:37:41.730 1.500E-01 0.600 F -0.214 -0.386 -12° 28' 11.80" 1.000E-01 0.600 F -0.090 0.047 19.3 V 0.70 0.24 i 691 0.66 Yes Yes
1993QA O c 1993-08-18.38715 1.000E-05 21:36:00.710 1.500E-01 0.600 F 0.027 -0.240 -12° 48' 26.80" 1.000E-01 0.600 F -0.253 0.008 19.6 V 0.70 0.50 i 691 0.41 Yes Yes
1993QA O c 1993-08-18.39654 1.000E-05 21:35:59.790 1.500E-01 0.600 F 0.027 -0.470 -12° 48' 37.30" 1.000E-01 0.600 F -0.253 -0.044 19.8 V 0.70 0.70 i 691 0.80 Yes Yes
1993QA O c 1993-08-18.40620 1.000E-05 21:35:58.990 1.500E-01 0.600 F 0.027 1.418 -12° 48' 47.00" 1.000E-01 0.600 F -0.253 0.998 19.0 V 0.70 -0.10 i 691 2.89 Yes Yes
1993PC O c 1993-08-18.41697 1.000E-05 22:20:43.850 1.500E-01 0.600 F -0.131 -0.005 -12° 04' 21.60" 1.000E-01 0.600 F -0.752 0.429 18.9 V 0.70 -0.21 i 691 0.72 Yes Yes
1993PC O c 1993-08-18.42618 1.000E-05 22:20:42.490 1.500E-01 0.600 F -0.131 0.041 -12° 04' 27.40" 1.000E-01 0.600 F -0.752 0.203 19.0 V 0.70 -0.11 i 691 0.35 Yes Yes
1993PC O c 1993-08-18.43592 1.000E-05 22:20:41.060 1.500E-01 0.600 F -0.131 0.192 -12° 04' 33.00" 1.000E-01 0.600 F -0.752 0.491 19.1 V 0.70 -0.01 i 691 0.88 Yes Yes
1993PB O c 1993-08-22.23831 1.000E-05 20:49:25.410 1.500E-01 0.600 F -0.067 0.125 -09° 12' 13.00" 1.000E-01 0.600 F 0.053 0.047 18.3 V 0.70 0.31 i 691 0.22 Yes Yes
1993PB O c 1993-08-22.24630 1.000E-05 20:49:24.220 1.500E-01 0.600 F -0.067 -0.232 -09° 12' 10.30" 1.000E-01 0.600 F 0.053 -0.073 18.3 V 0.70 0.31 i 691 0.41 Yes Yes
1993PB O c 1993-08-22.25371 1.000E-05 20:49:23.160 1.500E-01 0.600 F -0.067 0.081 -09° 12' 07.70" 1.000E-01 0.600 F 0.053 -0.090 18.3 V 0.70 0.31 i 691 0.20 Yes Yes
1993QA O c 1993-08-22.26343 1.000E-05 21:29:59.870 1.500E-01 0.600 F -0.522 0.102 -14° 00' 58.10" 1.000E-01 0.600 F -0.278 0.104 19.9 V 0.70 0.64 i 691 0.24 Yes Yes
1993QA O c 1993-08-22.27455 1.000E-05 21:29:58.770 1.500E-01 0.600 F -0.522 -0.169 -14° 01' 10.70" 1.000E-01 0.600 F -0.278 -0.005 19.8 V 0.70 0.54 i 691 0.29 Yes Yes
1993QA O c 1993-08-22.28293 1.000E-05 21:29:57.950 1.500E-01 0.600 F -0.522 -0.241 -14° 01' 20.10" 1.000E-01 0.600 F -0.278 0.000 19.8 V 0.70 0.54 i 691 0.41 Yes Yes
1993PC O c 1993-08-22.32076 1.000E-05 22:11:13.100 1.500E-01 0.600 F -0.966 -0.577 -12° 43' 56.10" 1.000E-01 0.600 F -0.475 0.453 18.9 V 0.70 0.03 i 691 1.22 Yes Yes
1993PC O c 1993-08-22.32844 1.000E-05 22:11:11.920 1.500E-01 0.600 F -0.966 -0.698 -12° 44' 00.90" 1.000E-01 0.600 F -0.475 0.259 18.6 V 0.70 -0.27 i 691 1.24 Yes Yes
1993PC O c 1993-08-22.33716 1.000E-05 22:11:10.620 1.500E-01 0.600 F -0.966 -0.255 -12° 44' 05.80" 1.000E-01 0.600 F -0.475 0.581 18.6 V 0.70 -0.26 i 691 1.06 Yes Yes
1993RA O c 1993-09-09.27355 1.000E-05 22:19:50.390 1.500E-01 0.600 F 0.806 -1.955 -07° 38' 07.60" 1.000E-01 0.600 F -0.568 -0.035 19.9 V 0.70 -0.10 i 691 3.22 No Yes
1993RA O c 1993-09-09.30671 1.000E-05 22:19:47.630 1.500E-01 0.600 F 0.806 -2.148 -07° 38' 34.70" 1.000E-01 0.600 F -0.568 1.378 20.4 V 0.70 0.40 i 691 4.23 No Yes
1993RA O c 1993-09-09.34165 1.000E-05 22:19:44.700 1.500E-01 0.600 F 0.806 -2.794 -07° 39' 06.30" 1.000E-01 0.600 F -0.568 -0.242 20.0 V 0.70 0.00 i 691 4.62 No Yes
1993RA O c 1993-09-10.18686 1.000E-05 22:18:39.730 1.500E-01 0.735 F 0.806 -0.078 -07° 51' 15.30" 1.000E-01 0.735 F -0.568 0.436 20.7 V 0.70 0.69 i 691 0.60 Yes Yes
1993RA O c 1993-09-10.19591 1.000E-05 22:18:39.010 1.500E-01 0.735 F 0.806 0.271 -07° 51' 24.00" 1.000E-01 0.735 F -0.568 -0.390 21.1 V 0.70 1.09 i 691 0.65 Yes Yes
1993RA O c 1993-09-10.20482 1.000E-05 22:18:38.210 1.500E-01 0.735 F 0.806 -0.724 -07° 51' 30.70" 1.000E-01 0.735 F -0.568 0.659 20.8 V 0.70 0.79 i 691 1.34 Yes Yes
1993RA O C 1993-09-10.32649 1.000E-05 22:18:28.150 1.500E-01 0.735 F 0.740 -0.821 -07° 53' 15.20" 1.000E-01 0.735 F -0.448 1.405 20.4 V 0.70 0.39 a 691 2.22 Yes Yes
1993RA O C 1993-09-10.33456 1.000E-05 22:18:27.490 1.500E-01 0.735 F 0.740 -0.755 -07° 53' 22.30" 1.000E-01 0.735 F -0.448 1.264 20.3 V 0.70 0.29 a 691 2.01 Yes Yes
1993RA O C 1993-09-10.34350 1.000E-05 22:18:26.760 1.500E-01 0.735 F 0.740 -0.679 -07° 53' 29.80" 1.000E-01 0.735 F -0.448 1.469 20.2 V 0.70 0.19 a 691 2.20 Yes Yes
1993PB O c 1993-09-11.14185 1.000E-05 20:15:13.780 1.500E-01 0.600 F -0.616 -0.668 -07° 34' 08.70" 1.000E-01 0.600 F 0.020 -0.598 21.0 V 0.70 2.07 i 691 1.50 Yes No
1993PB O c 1993-09-11.20926 1.000E-05 20:15:09.220 1.500E-01 0.600 F -0.616 -1.106 -07° 33' 51.80" 1.000E-01 0.600 F 0.020 -0.010 20.1 V 0.70 1.17 i 691 1.85 Yes Yes
1993QA O c 1993-09-14.12176 1.000E-05 21:00:05.260 1.500E-01 0.600 F 0.513 -0.667 -20° 19' 51.00" 1.000E-01 0.600 F 0.689 0.451 19.7 V 0.70 -0.22 i 691 1.35 Yes Yes
1993QA O c 1993-09-14.13174 1.000E-05 21:00:04.730 1.500E-01 0.600 F 0.513 -0.083 -20° 19' 59.30" 1.000E-01 0.600 F 0.689 0.159 19.7 V 0.70 -0.22 i 691 0.30 Yes Yes
1993QA O c 1993-09-14.14129 1.000E-05 21:00:04.170 1.500E-01 0.600 F 0.513 -0.257 -20° 20' 07.50" 1.000E-01 0.600 F 0.689 -0.391 20.0 V 0.70 0.08 i 691 0.79 Yes Yes
1993PC O c 1993-09-14.16216 1.000E-05 21:20:01.060 1.500E-01 0.600 F 0.163 -0.893 -15° 39' 31.20" 1.000E-01 0.600 F 0.110 0.176 19.2 V 0.70 -0.63 i 691 1.52 Yes Yes
1993PC O c 1993-09-14.17218 1.000E-05 21:20:00.050 1.500E-01 0.600 F 0.163 0.303 -15° 39' 33.70" 1.000E-01 0.600 F 0.110 0.496 19.8 V 0.70 -0.03 i 691 0.97 Yes Yes
1993PC O c 1993-09-14.19140 1.000E-05 21:19:57.920 1.500E-01 0.600 F 0.163 -0.172 -15° 39' 39.40" 1.000E-01 0.600 F 0.110 0.170 19.8 V 0.70 -0.03 i 691 0.40 Yes Yes
1993RA O c 1993-09-14.20517 1.000E-05 22:13:30.580 1.500E-01 0.600 F 0.007 0.503 -08° 49' 36.20" 1.000E-01 0.600 F -0.487 -0.225 20.1 V 0.70 0.02 i 691 0.93 Yes Yes
1993RA O c 1993-09-14.21550 1.000E-05 22:13:29.730 1.500E-01 0.600 F 0.007 0.204 -08° 49' 45.20" 1.000E-01 0.600 F -0.487 -0.172 20.4 V 0.70 0.32 i 691 0.45 Yes Yes
1993RA O c 1993-09-14.23079 1.000E-05 22:13:28.490 1.500E-01 0.600 F 0.007 0.050 -08° 49' 58.30" 1.000E-01 0.600 F -0.487 0.115 20.5 V 0.70 0.42 i 691 0.21 Yes Yes
1993RA O c 1993-09-18.17834 1.000E-05 22:08:39.130 1.500E-01 0.600 F -0.177 -0.556 -09° 47' 07.20" 1.000E-01 0.600 F -0.043 -0.125 20.5 V 0.70 0.36 i 691 0.96 Yes Yes
1993RA O c 1993-09-18.21391 1.000E-05 22:08:36.490 1.500E-01 0.600 F -0.177 0.164 -09° 47' 36.90" 1.000E-01 0.600 F -0.043 0.918 20.5 V 0.70 0.36 i 691 1.56 Yes Yes
1993RA O c 1993-09-18.24768 1.000E-05 22:08:33.920 1.500E-01 0.600 F -0.177 -0.025 -09° 48' 06.80" 1.000E-01 0.600 F -0.043 0.107 20.1 V 0.70 -0.04 i 691 0.18 Yes Yes
1993QA O c 1993-09-19.15183 1.000E-05 20:56:12.690 1.500E-01 0.600 F 0.069 0.468 -21° 21' 43.50" 1.000E-01 0.600 F 0.740 -0.088 20.2 V 0.70 0.15 i 691 0.79 Yes Yes
1993QA O c 1993-09-19.16088 1.000E-05 20:56:12.340 1.500E-01 0.600 F 0.069 0.943 -21° 21' 49.40" 1.000E-01 0.600 F 0.740 0.221 i 691 1.61 Yes No
1993QA O c 1993-09-19.16999 1.000E-05 20:56:11.890 1.500E-01 0.600 F 0.069 0.059 -21° 21' 55.40" 1.000E-01 0.600 F 0.740 0.459 i 691 0.77 Yes No
1993PC O c 1993-09-19.18222 1.000E-05 21:12:01.860 1.500E-01 0.600 F 0.189 -0.771 -15° 58' 56.90" 1.000E-01 0.600 F 0.400 -0.340 20.5 V 0.70 0.50 i 691 1.41 Yes Yes
1993PC O c 1993-09-19.19106 1.000E-05 21:12:01.160 1.500E-01 0.600 F 0.189 0.602 -15° 58' 58.40" 1.000E-01 0.600 F 0.400 -0.159 i 691 1.04 Yes No
1993PC O c 1993-09-19.20033 1.000E-05 21:12:00.290 1.500E-01 0.600 F 0.189 0.078 -15° 58' 59.60" 1.000E-01 0.600 F 0.400 0.393 i 691 0.67 Yes No
1993RA O c 1993-09-19.21210 1.000E-05 22:07:26.690 1.500E-01 0.600 F -0.197 0.073 -10° 01' 53.70" 1.000E-01 0.600 F 0.331 -0.116 20.1 V 0.70 -0.05 i 691 0.23 Yes Yes
1993RA O c 1993-09-19.22198 1.000E-05 22:07:25.930 1.500E-01 0.600 F -0.197 -0.332 -10° 02' 01.90" 1.000E-01 0.600 F 0.331 0.143 19.7 V 0.70 -0.45 i 691 0.61 Yes Yes
1993RA O c 1993-09-19.23149 1.000E-05 22:07:25.260 1.500E-01 0.600 F -0.197 0.189 -10° 02' 09.80" 1.000E-01 0.600 F 0.331 0.376 20.0 V 0.70 -0.15 i 691 0.71 Yes Yes
2001SK162 O C 1993-10-09.34868 1.000E-05 01:43:53.030 1.500E-01 0.600 F -0.296 0.169 +16° 00' 09.70" 1.000E-01 0.600 F 0.124 0.393 18.0 V 0.70 0.04 i 691 0.72 Yes Yes
2001SK162 O C 1993-10-09.39416 1.000E-05 01:43:50.250 1.500E-01 0.600 F -0.296 0.134 +16° 00' 04.70" 1.000E-01 0.600 F 0.124 0.353 i 691 0.64 Yes No
2001SK162 O C 1993-10-09.43390 1.000E-05 01:43:47.830 1.500E-01 0.600 F -0.296 -0.050 +16° 00' 00.10" 1.000E-01 0.600 F 0.124 0.367 i 691 0.62 Yes No
1993TQ2 O c 1993-10-11.44295 1.000E-05 02:45:44.140 1.500E-01 0.600 F -0.415 0.079 +20° 29' 37.60" 1.000E-01 0.600 F -0.124 0.384 20.1 V 0.70 0.37 i 691 0.66 Yes Yes
1993TQ2 O c 1993-10-11.46830 1.000E-05 02:45:44.330 1.500E-01 0.600 F -0.415 -0.279 +20° 30' 06.00" 1.000E-01 0.600 F -0.124 0.932 19.6 V 0.70 -0.13 i 691 1.63 Yes Yes
1993TQ2 O c 1993-10-11.49330 1.000E-05 02:45:44.560 1.500E-01 0.600 F -0.415 -0.269 +20° 30' 32.20" 1.000E-01 0.600 F -0.124 -0.221 19.6 V 0.70 -0.13 i 691 0.59 Yes Yes
1998OH O C 1993-10-13.32580 1.000E-05 03:00:47.830 1.500E-01 0.600 F 0.246 -0.507 +22° 30' 55.70" 1.000E-01 0.600 F 0.315 -0.165 17.9 V 0.70 -0.37 a 691 0.89 Yes Yes
1998OH O C 1993-10-13.33518 1.000E-05 03:00:47.200 1.500E-01 0.600 F 0.246 -0.425 +22° 30' 46.50" 1.000E-01 0.600 F 0.315 -0.272 17.9 V 0.70 -0.37 a 691 0.84 Yes Yes
1998OH O C 1993-10-13.34446 1.000E-05 03:00:46.570 1.500E-01 0.600 F 0.246 -0.428 +22° 30' 37.60" 1.000E-01 0.600 F 0.315 -0.165 18.0 V 0.70 -0.27 a 691 0.77 Yes Yes
1993TZ O c 1993-10-15.23721 1.000E-05 01:47:12.580 1.500E-01 0.735 F -0.414 0.366 +14° 49' 42.10" 1.000E-01 0.735 F 0.193 0.154 18.7 V 0.70 -0.19 i 691 0.60 Yes Yes
1993TZ O c 1993-10-15.28048 1.000E-05 01:48:13.170 1.500E-01 0.735 F -0.414 -2.632 +14° 50' 25.70" 1.000E-01 0.735 F 0.193 0.594 19.2 V 0.70 0.32 i 691 3.43 No Yes
1993TZ O c 1993-10-15.32107 1.000E-05 01:49:10.990 1.500E-01 0.735 F -0.559 -0.505 +14° 51' 00.70" 1.000E-01 0.735 F -0.026 -0.451 19.3 V 0.70 0.43 i 691 1.00 Yes Yes
1993TZ O c 1993-10-15.35686 1.000E-05 01:50:02.730 1.500E-01 0.735 F -0.559 1.462 +14° 51' 29.40" 1.000E-01 0.735 F -0.026 -0.134 19.4 V 0.70 0.54 i 691 2.16 Yes Yes
1993TZ O c 1993-10-15.36724 1.000E-05 01:50:17.650 1.500E-01 0.735 F -0.559 -1.515 +14° 51' 37.10" 1.000E-01 0.735 F -0.026 -0.029 19.1 V 0.70 0.24 i 691 2.24 Yes Yes
1993TZ O c 1993-10-15.37781 1.000E-05 01:50:33.300 1.500E-01 0.735 F -0.559 0.889 +14° 51' 44.30" 1.000E-01 0.735 F -0.026 -0.273 19.3 V 0.70 0.45 i 691 1.35 Yes Yes
1993TZ O c 1993-10-16.20920 1.000E-05 02:16:32.390 1.500E-01 0.671 F -0.346 -0.257 +14° 59' 28.50" 1.000E-01 0.671 F -0.666 0.920 18.9 V 0.70 0.24 i 691 1.56 Yes Yes
1993TZ O c 1993-10-16.22278 1.000E-05 02:17:01.140 1.500E-01 0.671 F -0.346 2.314 +14° 59' 34.40" 1.000E-01 0.671 F -0.666 -0.101 20.5 V 0.70 1.85 i 691 3.14 No Yes
1993UD O c 1993-10-16.36427 1.000E-05 02:43:57.570 1.500E-01 0.600 F -0.077 -0.074 +22° 11' 38.50" 1.000E-01 0.600 F 0.115 -0.432 19.8 V 0.70 0.33 i 691 0.76 Yes Yes
1993TQ2 O c 1993-10-16.36607 1.000E-05 02:46:33.520 1.500E-01 0.600 F -0.077 -0.050 +22° 05' 26.00" 1.000E-01 0.600 F 0.115 -0.104 19.6 V 0.70 0.16 i 691 0.19 Yes Yes
1993UD O c 1993-10-16.37318 1.000E-05 02:43:55.550 1.500E-01 0.600 F -0.077 0.056 +22° 11' 58.80" 1.000E-01 0.600 F 0.115 0.520 19.6 V 0.70 0.13 i 691 0.90 Yes Yes
1993TQ2 O c 1993-10-16.37500 1.000E-05 02:46:33.470 1.500E-01 0.600 F -0.077 -0.227 +22° 05' 37.00" 1.000E-01 0.600 F 0.115 0.056 19.6 V 0.70 0.16 i 691 0.39 Yes Yes
1993UD O c 1993-10-16.38194 1.000E-05 02:43:53.570 1.500E-01 0.600 F 0.049 0.137 +22° 12' 16.50" 1.000E-01 0.600 F 0.324 -0.984 20.5 V 0.70 1.03 i 691 1.70 Yes Yes
1993TQ2 O c 1993-10-16.38378 1.000E-05 02:46:33.430 1.500E-01 0.600 F -0.077 -0.277 +22° 05' 46.90" 1.000E-01 0.600 F 0.115 -0.681 21.4 V 0.70 1.96 i 691 1.24 Yes Yes
1993TZ O c 1993-10-16.47842 1.000E-05 02:26:24.930 1.500E-01 0.671 F 0.061 -0.874 +14° 59' 31.60" 1.000E-01 0.671 F -0.493 0.040 18.8 V 0.70 0.20 i 691 1.57 Yes Yes
1993TZ O c 1993-10-16.48714 1.000E-05 02:26:45.660 1.500E-01 0.671 F 0.061 0.656 +14° 59' 26.40" 1.000E-01 0.671 F -0.493 -0.337 19.1 V 0.70 0.50 i 691 1.29 Yes Yes
1993TZ O c 1993-10-16.49577 1.000E-05 02:27:05.810 1.500E-01 0.671 F 0.061 -4.890 +14° 59' 22.00" 1.000E-01 0.671 F -0.493 0.311 18.8 V 0.70 0.21 i 691 6.38 No Yes
1993UD O c 1993-10-19.49801 1.000E-05 02:32:15.000 1.500E-01 0.600 F 0.182 0.792 +24° 01' 14.20" 1.000E-01 0.600 F -0.202 -0.767 i 691 1.87 Yes No
1993UD O c 1993-10-19.51825 1.000E-05 02:32:10.210 1.500E-01 0.600 F 0.182 -0.423 +24° 01' 54.70" 1.000E-01 0.600 F -0.202 -0.199 i 691 0.82 Yes No
1993UD O c 1993-10-20.35789 1.000E-05 02:28:59.200 1.500E-01 0.600 F 0.533 0.324 +24° 29' 51.80" 1.000E-01 0.600 F 0.039 -0.015 21.2 V 0.70 1.81 i 691 0.56 Yes Yes
1993TQ2 O c 1993-10-20.36622 1.000E-05 02:46:33.850 1.500E-01 0.600 F -0.107 -0.745 +23° 29' 26.70" 1.000E-01 0.600 F 0.319 0.245 19.1 V 0.70 -0.10 i 691 1.33 Yes Yes
1993UD O c 1993-10-20.37513 1.000E-05 02:28:55.040 1.500E-01 0.600 F 0.533 -0.377 +24° 30' 25.40" 1.000E-01 0.600 F 0.039 -0.136 20.2 V 0.70 0.81 i 691 0.70 Yes Yes
1993TQ2 O c 1993-10-20.38323 1.000E-05 02:46:33.670 1.500E-01 0.600 F -0.107 -0.070 +23° 29' 47.90" 1.000E-01 0.600 F 0.319 -0.556 18.9 V 0.70 -0.30 i 691 0.94 Yes Yes
1993UD O c 1993-10-20.39209 1.000E-05 02:28:51.090 1.500E-01 0.600 F 0.533 0.826 +24° 30' 58.50" 1.000E-01 0.600 F 0.039 -0.102 20.0 V 0.70 0.61 i 691 1.44 Yes Yes
1993TQ2 O c 1993-10-20.40033 1.000E-05 02:46:33.450 1.500E-01 0.600 F -0.107 0.027 +23° 30' 10.70" 1.000E-01 0.600 F 0.319 0.212 19.0 V 0.70 -0.19 i 691 0.36 Yes Yes
1993RA O C 1993-10-21.13153 1.000E-05 21:53:31.590 1.500E-01 0.600 F 0.002 -0.675 -15° 29' 36.40" 1.000E-01 0.600 F -0.280 0.300 20.3 V 0.70 -0.33 a 691 1.24 Yes Yes
1993RA O C 1993-10-21.13915 1.000E-05 21:53:31.780 1.500E-01 0.600 F 0.002 -0.267 -15° 29' 38.50" 1.000E-01 0.600 F -0.280 0.487 20.3 V 0.70 -0.33 a 691 0.93 Yes Yes
1993RA O C 1993-10-21.14732 1.000E-05 21:53:31.950 1.500E-01 0.600 F 0.002 -0.321 -15° 29' 40.60" 1.000E-01 0.600 F -0.280 0.830 20.1 V 0.70 -0.53 a 691 1.49 Yes Yes
1993UA O c 1993-10-21.41449 1.000E-05 02:39:26.030 1.500E-01 0.735 F -0.061 -0.311 +22° 01' 37.90" 1.000E-01 0.735 F 0.322 0.232 17.6 V 0.70 0.24 i 691 0.57 Yes Yes
1993UA O c 1993-10-21.43421 1.000E-05 02:39:51.430 1.500E-01 0.735 F -0.061 0.109 +22° 08' 40.00" 1.000E-01 0.735 F 0.322 -0.395 17.5 V 0.70 0.13 i 691 0.61 Yes Yes
1993UA O c 1993-10-21.47046 1.000E-05 02:40:38.140 1.500E-01 0.735 F -0.061 0.000 +22° 21' 17.70" 1.000E-01 0.735 F 0.322 0.339 17.7 V 0.70 0.29 i 691 0.50 Yes Yes
1993UA O c 1993-10-21.47842 1.000E-05 02:40:48.400 1.500E-01 0.735 F -0.061 -0.491 +22° 24' 01.30" 1.000E-01 0.735 F 0.322 1.052 17.5 V 0.70 0.09 i 691 1.71 Yes Yes
1993UA O c 1993-10-21.51063 1.000E-05 02:41:30.350 1.500E-01 0.735 F 0.049 0.398 +22° 34' 47.70" 1.000E-01 0.735 F 0.324 -0.168 17.6 V 0.70 0.16 i 691 0.64 Yes Yes
1993UA O c 1993-10-21.51871 1.000E-05 02:41:40.870 1.500E-01 0.735 F 0.049 -0.305 +22° 37' 27.20" 1.000E-01 0.735 F 0.324 -0.359 17.5 V 0.70 0.05 i 691 0.70 Yes Yes
1993UA O c 1993-10-22.20202 1.000E-05 02:55:55.960 1.500E-01 0.735 F 0.007 0.582 +25° 50' 09.00" 1.000E-01 0.735 F 0.212 0.118 17.9 V 0.70 -0.10 i 691 0.99 Yes Yes
1993UA O c 1993-10-22.21018 1.000E-05 02:56:03.050 1.500E-01 0.735 F 0.007 -0.140 +25° 52' 06.30" 1.000E-01 0.735 F 0.212 -0.751 18.1 V 0.70 0.10 i 691 1.11 Yes Yes
1993UA O c 1993-10-22.21900 1.000E-05 02:56:10.660 1.500E-01 0.735 F 0.007 -0.407 +25° 54' 13.30" 1.000E-01 0.735 F 0.212 -0.585 18.1 V 0.70 0.09 i 691 1.09 Yes Yes
1993UA O c 1993-10-22.47552 1.000E-05 02:59:30.430 1.500E-01 0.735 F 0.373 -0.162 +26° 48' 28.70" 1.000E-01 0.735 F -0.154 -0.112 17.9 V 0.70 -0.28 i 691 0.30 Yes Yes
1993UA O c 1993-10-22.48364 1.000E-05 02:59:36.730 1.500E-01 0.735 F 0.373 0.544 +26° 49' 59.70" 1.000E-01 0.735 F -0.154 0.842 18.1 V 0.70 -0.08 i 691 1.54 Yes Yes
1993UA O c 1993-10-22.49194 1.000E-05 02:59:43.160 1.500E-01 0.735 F 0.373 0.742 +26° 51' 29.50" 1.000E-01 0.735 F -0.154 -0.716 18.0 V 0.70 -0.19 i 691 1.46 Yes Yes
1993TQ2 O c 1993-10-24.34663 1.000E-05 02:46:00.420 1.500E-01 0.600 F -0.222 -0.014 +24° 58' 41.60" 1.000E-01 0.600 F 0.073 -0.116 18.9 V 0.70 -0.06 i 691 0.20 Yes Yes
1993TQ2 O c 1993-10-24.35469 1.000E-05 02:46:00.240 1.500E-01 0.600 F -0.222 0.022 +24° 58' 52.90" 1.000E-01 0.600 F 0.073 0.043 18.8 V 0.70 -0.16 i 691 0.08 Yes Yes
1993UA O c 1993-10-24.46562 1.000E-05 03:19:51.600 1.500E-01 0.600 F -0.091 0.220 +31° 04' 52.20" 1.000E-01 0.600 F -0.051 0.674 18.9 V 0.70 -0.29 i 691 1.43 Yes Yes
1993UA O c 1993-10-24.47419 1.000E-05 03:19:54.440 1.500E-01 0.600 F -0.091 -0.167 +31° 05' 29.90" 1.000E-01 0.600 F -0.051 -0.070 19.1 V 0.70 -0.10 i 691 0.37 Yes Yes
1993UA O c 1993-10-24.48365 1.000E-05 03:19:57.620 1.500E-01 0.600 F -0.091 -0.428 +31° 06' 11.70" 1.000E-01 0.600 F -0.051 -0.261 19.1 V 0.70 -0.10 i 691 1.02 Yes Yes
1993UD O c 1993-11-06.10891 1.000E-05 01:27:53.790 1.500E-01 0.600 F 0.038 -0.204 +30° 59' 24.30" 1.000E-01 0.600 F 0.303 0.334 19.9 V 0.70 0.03 i 691 0.67 Yes Yes
1993UD O c 1993-11-06.11837 1.000E-05 01:27:51.930 1.500E-01 0.600 F 0.038 -0.745 +30° 59' 33.80" 1.000E-01 0.600 F 0.303 1.589 19.4 V 0.70 -0.47 i 691 3.01 Yes Yes
1993TQ2 O c 1993-11-06.13943 1.000E-05 02:40:51.140 1.500E-01 0.600 F 0.158 -0.007 +30° 21' 12.90" 1.000E-01 0.600 F 0.013 0.195 18.5 V 0.70 0.11 i 691 0.33 Yes Yes
1993TQ2 O c 1993-11-06.14970 1.000E-05 02:40:50.740 1.500E-01 0.600 F 0.158 0.346 +30° 21' 30.20" 1.000E-01 0.600 F 0.013 0.156 18.5 V 0.70 0.11 i 691 0.66 Yes Yes
1993VD O c 1993-11-09.42952 1.000E-05 03:42:24.630 1.500E-01 0.600 F -0.354 0.284 +28° 19' 20.10" 1.000E-01 0.600 F -0.183 2.587 19.8 V 0.70 0.56 i 691 4.30 No Yes
1993VD O c 1993-11-09.47037 1.000E-05 03:42:03.960 1.500E-01 0.600 F -0.354 -0.371 +28° 18' 06.50" 1.000E-01 0.600 F -0.183 -0.064 19.8 V 0.70 0.56 i 691 0.65 Yes Yes
1993VD O c 1993-11-09.50665 1.000E-05 03:41:45.750 1.500E-01 0.600 F -0.354 -0.889 +28° 17' 03.50" 1.000E-01 0.600 F -0.183 0.633 20.0 V 0.70 0.76 i 691 1.87 Yes Yes
1993VD O c 1993-11-10.23061 1.000E-05 03:35:59.110 1.500E-01 0.735 F -0.009 -0.470 +27° 56' 42.40" 1.000E-01 0.735 F -0.444 -0.277 20.1 V 0.70 0.88 i 691 0.76 Yes Yes
1993VD O c 1993-11-10.24341 1.000E-05 03:35:52.870 1.500E-01 0.735 F -0.009 0.060 +27° 56' 21.60" 1.000E-01 0.735 F -0.444 0.245 20.1 V 0.70 0.88 i 691 0.35 Yes Yes
1993VD O c 1993-11-10.25622 1.000E-05 03:35:46.640 1.500E-01 0.735 F -0.009 0.847 +27° 56' 00.10" 1.000E-01 0.735 F -0.444 0.187 20.1 V 0.70 0.88 i 691 1.21 Yes Yes
1993VD O c 1993-11-10.43326 1.000E-05 03:34:19.870 1.500E-01 0.735 F -0.009 -0.377 +27° 50' 52.20" 1.000E-01 0.735 F -0.444 0.026 19.4 V 0.70 0.18 i 691 0.53 Yes Yes
1993VD O c 1993-11-10.44180 1.000E-05 03:34:15.710 1.500E-01 0.735 F -0.009 -0.687 +27° 50' 37.20" 1.000E-01 0.735 F -0.444 0.376 19.4 V 0.70 0.18 i 691 1.09 Yes Yes
1993VD O c 1993-11-10.45031 1.000E-05 03:34:11.620 1.500E-01 0.735 F -0.009 -0.351 +27° 50' 21.40" 1.000E-01 0.735 F -0.444 -0.091 20.0 V 0.70 0.79 i 691 0.51 Yes Yes
1993VD O C 1993-11-11.36404 1.000E-05 03:27:10.350 1.500E-01 0.600 F 0.222 0.638 +27° 23' 43.20" 1.000E-01 0.600 F -0.218 0.074 18.4 V 0.70 -0.80 a 691 1.12 Yes Yes
1993VD O C 1993-11-11.37301 1.000E-05 03:27:06.110 1.500E-01 0.600 F 0.222 0.019 +27° 23' 26.80" 1.000E-01 0.600 F -0.218 -0.102 19.4 V 0.70 0.20 a 691 0.17 Yes Yes
1993VD O C 1993-11-11.38163 1.000E-05 03:27:01.990 1.500E-01 0.600 F 0.222 -1.241 +27° 23' 11.10" 1.000E-01 0.600 F -0.218 -0.164 18.8 V 0.70 -0.40 a 691 2.17 Yes Yes
1993VD O c 1993-11-17.29295 1.000E-05 02:48:43.890 1.500E-01 0.600 F -0.117 0.067 +24° 24' 31.20" 1.000E-01 0.600 F 0.274 -0.405 i 691 0.69 Yes No
1993VD O c 1993-11-17.30155 1.000E-05 02:48:40.970 1.500E-01 0.600 F -0.117 0.176 +24° 24' 16.50" 1.000E-01 0.600 F 0.274 0.308 i 691 0.61 Yes No
1993VD O c 1993-11-17.30939 1.000E-05 02:48:38.330 1.500E-01 0.600 F -0.117 0.541 +24° 24' 02.40" 1.000E-01 0.600 F 0.274 0.288 i 691 1.06 Yes No
1991WA O c 1993-12-14.08778 1.000E-05 02:33:40.380 1.500E-01 0.600 F 0.319 -1.002 +21° 42' 08.10" 1.000E-01 0.600 F 0.699 -0.280 17.2 V 0.70 -0.03 i 691 1.74 Yes Yes
1991WA O c 1993-12-14.12287 1.000E-05 02:33:37.090 1.500E-01 0.600 F 0.319 -0.366 +21° 43' 29.70" 1.000E-01 0.600 F 0.699 -0.799 17.6 V 0.70 0.36 i 691 1.47 Yes Yes
1991WA O c 1993-12-14.15633 1.000E-05 02:33:33.870 1.500E-01 0.600 F 0.319 -0.791 +21° 44' 48.80" 1.000E-01 0.600 F 0.699 0.402 17.0 V 0.70 -0.24 i 691 1.48 Yes Yes
1991WA O c 1993-12-15.06805 1.000E-05 02:32:17.270 1.500E-01 0.600 F 0.336 -0.356 +22° 18' 58.80" 1.000E-01 0.600 F 0.082 0.849 17.1 V 0.70 -0.23 i 691 1.54 Yes Yes
1991WA O c 1993-12-15.07641 1.000E-05 02:32:16.580 1.500E-01 0.600 F 0.336 0.026 +22° 19' 17.30" 1.000E-01 0.600 F 0.082 0.884 i 691 1.48 Yes No
1991WA O c 1993-12-15.08431 1.000E-05 02:32:15.870 1.500E-01 0.600 F 0.336 -0.402 +22° 19' 34.30" 1.000E-01 0.600 F 0.082 0.455 16.9 V 0.70 -0.44 i 691 1.01 Yes Yes
1991AM O c 1994-01-04.16703 1.000E-05 04:05:00.550 1.500E-01 0.600 F -0.272 -0.203 -15° 03' 19.50" 1.000E-01 0.600 F -0.860 0.486 19.9 V 0.70 0.03 i 691 0.88 Yes Yes
1991AM O c 1994-01-04.18525 1.000E-05 04:04:59.660 1.500E-01 0.600 F -0.272 -0.037 -15° 03' 00.90" 1.000E-01 0.600 F -0.860 0.165 20.0 V 0.70 0.13 i 691 0.28 Yes Yes
1991AM O c 1994-01-04.20311 1.000E-05 04:04:58.810 1.500E-01 0.600 F -0.272 0.441 -15° 02' 42.30" 1.000E-01 0.600 F -0.860 0.202 19.9 V 0.70 0.03 i 691 0.81 Yes Yes
1993KH O C 1994-01-05.32604 1.000E-05 09:15:45.330 1.500E-01 0.600 F -0.179 0.353 +53° 23' 47.30" 1.000E-01 0.600 F 0.048 0.052 19.0 V 0.70 0.30 i 691 0.60 Yes Yes
1993KH O C 1994-01-05.32943 1.000E-05 09:15:44.600 1.500E-01 0.600 F -0.179 0.222 +53° 23' 51.80" 1.000E-01 0.600 F 0.048 -0.144 i 691 0.44 Yes No
1993KH O C 1994-01-05.33433 1.000E-05 09:15:43.570 1.500E-01 0.600 F -0.179 0.265 +53° 23' 58.70" 1.000E-01 0.600 F 0.048 -0.020 i 691 0.44 Yes No
2003YO1 O C 1994-01-13.09366 1.000E-05 02:32:00.840 1.500E-01 0.600 F 0.182 0.104 +24° 19' 59.10" 1.000E-01 0.600 F -0.201 -0.922 21.2 V 0.70 0.12 i 691 1.59 Yes Yes
Minos O C 1994-01-13.10041 1.000E-05 02:41:45.830 1.500E-01 0.600 F 0.055 -0.548 +24° 14' 26.60" 1.000E-01 0.600 F 0.142 0.010 19.9 V 0.70 0.03 a 691 0.91 Yes Yes
2003YO1 O C 1994-01-13.11409 1.000E-05 02:32:00.420 1.500E-01 0.600 F 0.182 0.062 +24° 20' 07.40" 1.000E-01 0.600 F -0.201 -0.546 i 691 0.94 Yes No
Minos O C 1994-01-13.12084 1.000E-05 02:41:45.490 1.500E-01 0.600 F 0.055 -0.553 +24° 14' 17.80" 1.000E-01 0.600 F 0.142 -0.204 19.6 V 0.70 -0.27 a 691 0.98 Yes Yes
2003YO1 O C 1994-01-13.13558 1.000E-05 02:32:00.070 1.500E-01 0.600 F 0.182 1.234 +24° 20' 15.30" 1.000E-01 0.600 F -0.201 -0.910 i 691 2.56 Yes No
Minos O C 1994-01-13.14233 1.000E-05 02:41:45.140 1.500E-01 0.600 F 0.055 -0.493 +24° 14' 08.80" 1.000E-01 0.600 F 0.142 -0.097 19.4 V 0.70 -0.47 a 691 0.84 Yes Yes
1990VA O C 1994-01-13.15883 1.000E-05 03:57:14.470 1.500E-01 0.600 F -0.321 0.842 -19° 47' 23.90" 1.000E-01 0.600 F -0.005 0.190 19.9 V 0.70 -0.34 a 691 1.47 Yes Yes
1990VA O C 1994-01-13.16756 1.000E-05 03:57:13.890 1.500E-01 0.600 F -0.321 0.644 -19° 47' 19.50" 1.000E-01 0.600 F -0.005 -0.096 19.8 V 0.70 -0.45 a 691 1.11 Yes Yes
1990VA O C 1994-01-13.17623 1.000E-05 03:57:13.340 1.500E-01 0.600 F -0.321 0.807 -19° 47' 14.70" 1.000E-01 0.600 F -0.005 0.029 19.8 V 0.70 -0.45 a 691 1.37 Yes Yes
Melissabrucker O C 1994-01-14.40449 1.000E-05 10:03:00.360 1.500E-01 0.600 F -0.105 -0.302 +05° 55' 22.90" 1.000E-01 0.600 F -0.001 0.193 16.5 V 0.70 0.62 a 691 0.60 Yes Yes
Melissabrucker O C 1994-01-14.42361 1.000E-05 10:02:59.240 1.500E-01 0.600 F -0.105 -0.303 +05° 55' 30.60" 1.000E-01 0.600 F -0.001 0.152 15.7 V 0.70 -0.18 a 691 0.57 Yes Yes
Melissabrucker O C 1994-01-14.44214 1.000E-05 10:02:58.170 1.500E-01 0.600 F -0.105 -0.071 +05° 55' 38.20" 1.000E-01 0.600 F -0.001 0.257 15.6 V 0.70 -0.28 a 691 0.44 Yes Yes
1994BB O C 1994-01-18.28129 1.000E-05 07:59:06.090 1.500E-01 0.600 F 0.271 0.025 +20° 03' 19.50" 1.000E-01 0.600 F -0.522 0.189 20.4 V 0.70 -0.04 a 691 0.32 Yes Yes
1994BB O C 1994-01-18.30840 1.000E-05 07:59:08.230 1.500E-01 0.600 F 0.271 -0.153 +20° 03' 22.90" 1.000E-01 0.600 F -0.522 -0.416 20.6 V 0.70 0.16 a 691 0.75 Yes Yes
1994BB O C 1994-01-18.33534 1.000E-05 07:59:10.390 1.500E-01 0.600 F 0.271 0.207 +20° 03' 26.40" 1.000E-01 0.600 F -0.522 -0.520 20.4 V 0.70 -0.04 a 691 0.95 Yes Yes
2013YB38 O C 1994-01-19.13048 1.000E-05 04:43:05.820 1.500E-01 0.600 F -0.433 -0.009 +03° 59' 46.50" 1.000E-01 0.600 F 0.205 0.250 20.3 V 0.70 -0.08 a 691 0.45 Yes Yes
2013YB38 O C 1994-01-19.14923 1.000E-05 04:43:04.830 1.500E-01 0.600 F -0.433 -0.127 +03° 59' 35.60" 1.000E-01 0.600 F 0.205 0.280 20.0 V 0.70 -0.38 a 691 0.57 Yes Yes
2013YB38 O C 1994-01-19.17001 1.000E-05 04:43:03.750 1.500E-01 0.600 F -0.433 0.003 +03° 59' 23.50" 1.000E-01 0.600 F 0.205 0.293 20.1 V 0.70 -0.28 a 691 0.52 Yes Yes
1994BB O c 1994-01-19.19088 1.000E-05 08:00:34.140 1.500E-01 0.735 F 0.084 0.152 +20° 05' 18.70" 1.000E-01 0.735 F -0.368 0.343 20.2 V 0.70 -0.29 i 691 0.51 Yes Yes
1994BB O c 1994-01-19.19957 1.000E-05 08:00:34.850 1.500E-01 0.735 F 0.084 0.058 +20° 05' 20.00" 1.000E-01 0.735 F -0.368 0.016 20.6 V 0.70 0.11 i 691 0.08 Yes Yes
1994BB O c 1994-01-19.20811 1.000E-05 08:00:35.510 1.500E-01 0.735 F 0.084 -0.492 +20° 05' 21.40" 1.000E-01 0.735 F -0.368 -0.156 20.4 V 0.70 -0.09 i 691 0.72 Yes Yes
1994BB O C 1994-01-19.40974 1.000E-05 08:00:51.470 1.500E-01 0.735 F 0.271 -0.060 +20° 05' 48.20" 1.000E-01 0.735 F -0.522 -0.260 20.4 V 0.70 -0.11 a 691 0.37 Yes Yes
1994BB O C 1994-01-19.41823 1.000E-05 08:00:52.160 1.500E-01 0.735 F 0.271 -0.011 +20° 05' 49.00" 1.000E-01 0.735 F -0.522 -0.170 20.2 V 0.70 -0.31 a 691 0.23 Yes Yes
1994BB O C 1994-01-19.42685 1.000E-05 08:00:52.860 1.500E-01 0.735 F 0.271 -0.034 +20° 05' 49.60" 1.000E-01 0.735 F -0.522 -0.261 20.4 V 0.70 -0.11 a 691 0.36 Yes Yes
1994BB O c 1994-01-21.36370 1.000E-05 08:03:53.650 1.500E-01 0.600 F 0.095 -0.577 +20° 09' 54.80" 1.000E-01 0.600 F -0.031 -0.263 20.9 V 0.70 0.25 i 691 1.09 Yes Yes
1994BB O c 1994-01-21.37215 1.000E-05 08:03:54.350 1.500E-01 0.600 F 0.095 0.213 +20° 09' 56.10" 1.000E-01 0.600 F -0.031 0.264 21.0 V 0.70 0.35 i 691 0.57 Yes Yes
1994BB O c 1994-02-02.20672 1.000E-05 08:20:34.550 1.500E-01 0.600 F 0.031 -0.110 +20° 24' 32.50" 1.000E-01 0.600 F -0.778 0.572 20.7 V 0.70 -0.68 i 691 0.98 Yes Yes
1994BB O c 1994-02-02.21469 1.000E-05 08:20:35.030 1.500E-01 0.600 F 0.031 -0.749 +20° 24' 31.90" 1.000E-01 0.600 F -0.778 -0.479 21.9 V 0.70 0.52 i 691 1.51 Yes Yes
1994BB O c 1994-02-02.22322 1.000E-05 08:20:35.740 1.500E-01 0.600 F 0.031 1.367 +20° 24' 33.20" 1.000E-01 0.600 F -0.778 0.366 21.6 V 0.70 0.22 i 691 2.43 Yes Yes
1991EE O c 1994-02-02.28434 1.000E-05 09:02:46.350 1.500E-01 0.600 F 0.257 2.070 +08° 13' 42.60" 1.000E-01 0.600 F -0.237 -0.526 21.3 V 0.70 0.13 i 691 3.56 No Yes
1991EE O c 1994-02-02.32179 1.000E-05 09:02:43.540 1.500E-01 0.600 F 0.257 0.079 +08° 13' 56.90" 1.000E-01 0.600 F -0.237 -0.391 21.3 V 0.70 0.13 i 691 0.67 Yes Yes
1994CB O c 1994-02-03.19552 1.000E-05 08:58:19.350 1.500E-01 0.900 F 0.071 -0.216 +09° 40' 33.70" 1.000E-01 0.900 F -0.105 0.269 17.5 V 0.70 -0.73 i 691 0.39 Yes Yes
1994CB O c 1994-02-03.21726 1.000E-05 08:58:12.570 1.500E-01 0.900 F 0.071 0.267 +09° 38' 52.20" 1.000E-01 0.900 F -0.105 0.143 17.4 V 0.70 -0.83 i 691 0.34 Yes Yes
1994CB O c 1994-02-03.23902 1.000E-05 08:58:05.710 1.500E-01 0.900 F 0.071 0.125 +09° 37' 10.60" 1.000E-01 0.900 F -0.105 0.165 17.5 V 0.70 -0.73 i 691 0.23 Yes Yes
1994CB O c 1994-02-03.24491 1.000E-05 08:58:03.820 1.500E-01 0.900 F 0.071 -0.335 +09° 36' 42.80" 1.000E-01 0.900 F -0.105 -0.100 18.1 V 0.70 -0.13 i 691 0.39 Yes Yes
1994CC O C 1994-02-03.25610 1.000E-05 09:14:12.670 1.500E-01 0.600 F 0.144 0.024 +09° 31' 23.50" 1.000E-01 0.600 F 0.234 0.011 20.1 V 0.70 -0.04 a 691 0.04 Yes Yes
1994CB O c 1994-02-03.26669 1.000E-05 08:57:56.880 1.500E-01 0.900 F 0.071 -1.108 +09° 35' 01.40" 1.000E-01 0.900 F -0.105 0.423 18.5 V 0.70 0.27 i 691 1.33 Yes Yes
1994CC O C 1994-02-03.27793 1.000E-05 09:14:10.580 1.500E-01 0.600 F 0.144 -0.155 +09° 31' 30.00" 1.000E-01 0.600 F 0.234 -0.135 20.4 V 0.70 0.26 a 691 0.34 Yes Yes
1994CB O c 1994-02-03.29929 1.000E-05 08:57:46.560 1.500E-01 0.900 F 0.071 -0.829 +09° 32' 28.20" 1.000E-01 0.900 F -0.105 0.099 18.3 V 0.70 0.07 i 691 0.93 Yes Yes
1994CC O C 1994-02-03.31062 1.000E-05 09:14:07.510 1.500E-01 0.600 F 0.144 0.528 +09° 31' 39.70" 1.000E-01 0.600 F 0.234 -0.358 20.3 V 0.70 0.17 a 691 1.07 Yes Yes
1994CB O c 1994-02-03.40582 1.000E-05 08:57:12.820 1.500E-01 0.900 F 0.071 -0.547 +09° 24' 05.50" 1.000E-01 0.900 F -0.105 -0.380 18.2 V 0.70 -0.04 i 691 0.74 Yes Yes
1994CB O c 1994-02-03.41478 1.000E-05 08:57:10.030 1.500E-01 0.900 F 0.071 -0.097 +09° 23' 23.20" 1.000E-01 0.900 F -0.105 -0.266 18.1 V 0.70 -0.14 i 691 0.32 Yes Yes
1994CB O c 1994-02-03.42450 1.000E-05 08:57:06.980 1.500E-01 0.900 F 0.071 -0.038 +09° 22' 37.40" 1.000E-01 0.900 F -0.105 -0.027 18.4 V 0.70 0.16 i 691 0.05 Yes Yes
1994CB O c 1994-02-04.18381 1.000E-05 08:53:21.520 1.500E-01 0.600 F -0.074 0.171 +08° 22' 34.40" 1.000E-01 0.600 F -0.272 0.131 i 691 0.36 Yes No
1994CB O c 1994-02-04.19442 1.000E-05 08:53:18.160 1.500E-01 0.600 F -0.074 0.046 +08° 21' 43.40" 1.000E-01 0.600 F -0.272 -0.454 i 691 0.77 Yes No
1994CB O c 1994-02-04.20549 1.000E-05 08:53:14.720 1.500E-01 0.600 F -0.074 1.023 +08° 20' 52.50" 1.000E-01 0.600 F -0.272 1.280 i 691 2.74 Yes No
1994CB O c 1994-02-04.21277 1.000E-05 08:53:12.390 1.500E-01 0.600 F -0.074 0.730 +08° 20' 17.00" 1.000E-01 0.600 F -0.272 0.412 i 691 1.41 Yes No
1994CC O c 1994-02-04.31185 1.000E-05 09:12:34.300 1.500E-01 0.600 F 0.099 0.576 +09° 36' 45.60" 1.000E-01 0.600 F 0.248 -0.194 i 691 1.02 Yes No
1994CC O c 1994-02-04.35786 1.000E-05 09:12:29.980 1.500E-01 0.600 F 0.099 2.017 +09° 37' 00.50" 1.000E-01 0.600 F 0.248 0.546 i 691 3.47 No No
1994CC O c 1994-02-05.30108 1.000E-05 09:11:01.650 1.500E-01 0.600 F -0.068 0.233 +09° 41' 53.00" 1.000E-01 0.600 F 0.048 -0.109 20.7 V 0.70 0.61 i 691 0.43 Yes Yes
1994CC O c 1994-02-05.30891 1.000E-05 09:11:00.900 1.500E-01 0.600 F -0.068 0.318 +09° 41' 55.60" 1.000E-01 0.600 F 0.048 0.032 20.2 V 0.70 0.11 i 691 0.53 Yes Yes
1994CC O c 1994-02-05.31671 1.000E-05 09:11:00.140 1.500E-01 0.600 F -0.068 0.213 +09° 41' 58.20" 1.000E-01 0.600 F 0.048 0.186 20.5 V 0.70 0.41 i 691 0.47 Yes Yes
1994CB O c 1994-02-05.32666 1.000E-05 08:47:31.180 1.500E-01 0.600 F 0.074 0.092 +06° 50' 47.60" 1.000E-01 0.600 F -0.079 0.044 18.1 V 0.70 -0.24 i 691 0.17 Yes Yes
1994CB O c 1994-02-05.33441 1.000E-05 08:47:28.660 1.500E-01 0.600 F 0.074 -0.158 +06° 50' 09.60" 1.000E-01 0.600 F -0.079 -0.252 17.7 V 0.70 -0.64 i 691 0.50 Yes Yes
1994CB O c 1994-02-05.34219 1.000E-05 08:47:26.160 1.500E-01 0.600 F 0.074 0.016 +06° 49' 32.10" 1.000E-01 0.600 F -0.079 0.114 18.2 V 0.70 -0.14 i 691 0.19 Yes Yes
1994CC O c 1994-02-10.17801 1.000E-05 09:03:21.050 1.500E-01 0.600 F -0.008 -0.543 +10° 08' 13.10" 1.000E-01 0.600 F 0.045 0.523 20.7 V 0.70 0.57 i 691 1.26 Yes Yes
1994CC O c 1994-02-10.20024 1.000E-05 09:03:18.960 1.500E-01 0.600 F -0.008 0.324 +10° 08' 20.30" 1.000E-01 0.600 F 0.045 0.235 20.8 V 0.70 0.67 i 691 0.67 Yes Yes
1994CC O c 1994-02-10.22215 1.000E-05 09:03:16.820 1.500E-01 0.600 F -0.008 0.064 +10° 08' 27.20" 1.000E-01 0.600 F 0.045 -0.230 20.4 V 0.70 0.27 i 691 0.40 Yes Yes
1994CB O c 1994-02-10.24756 1.000E-05 08:22:23.650 1.500E-01 0.600 F -0.956 0.126 +00° 06' 00.60" 1.000E-01 0.600 F -0.929 -0.243 18.2 V 0.70 -0.43 i 691 0.46 Yes Yes
1994CB O c 1994-02-10.25503 1.000E-05 08:22:21.290 1.500E-01 0.600 F -0.956 0.727 +00° 05' 24.50" 1.000E-01 0.600 F -0.929 0.512 18.0 V 0.70 -0.63 i 691 1.49 Yes Yes
1994CB O c 1994-02-10.26303 1.000E-05 08:22:18.680 1.500E-01 0.600 F -0.956 0.139 +00° 04' 44.70" 1.000E-01 0.600 F -0.929 0.180 18.2 V 0.70 -0.43 i 691 0.38 Yes Yes
1994CJ1 O c 1994-02-10.28341 1.000E-05 09:21:16.920 1.500E-01 0.600 F 0.024 -0.521 +11° 02' 08.90" 1.000E-01 0.600 F -0.072 -0.016 20.3 V 0.70 -0.26 i 691 0.89 Yes Yes
Akka O C 1994-02-10.29541 1.000E-05 09:35:33.640 1.500E-01 0.600 F 0.029 0.091 +10° 46' 13.20" 1.000E-01 0.600 F -0.265 0.179 20.9 V 0.70 0.07 a 691 0.33 Yes Yes
1994CJ1 O c 1994-02-10.32871 1.000E-05 09:21:11.800 1.500E-01 0.600 F 0.024 -0.238 +11° 02' 37.90" 1.000E-01 0.600 F -0.072 0.190 20.3 V 0.70 -0.26 i 691 0.52 Yes Yes
Akka O C 1994-02-10.33928 1.000E-05 09:35:30.050 1.500E-01 0.600 F 0.029 -0.316 +10° 46' 29.90" 1.000E-01 0.600 F -0.265 0.032 21.3 V 0.70 0.47 a 691 0.53 Yes Yes
1994CJ1 O c 1994-02-10.37234 1.000E-05 09:21:06.860 1.500E-01 0.600 F 0.024 -0.188 +11° 03' 05.50" 1.000E-01 0.600 F -0.072 0.298 20.4 V 0.70 -0.16 i 691 0.60 Yes Yes
Akka O C 1994-02-10.38731 1.000E-05 09:35:26.150 1.500E-01 0.600 F 0.029 -0.360 +10° 46' 48.50" 1.000E-01 0.600 F -0.265 0.263 21.6 V 0.70 0.77 a 691 0.75 Yes Yes

[1-200] [201-400] [401-600] [601-800] [801-1000] [1001-1200] [1201-1400] [1401-1600] [1601-1800] [1801-2000] [2001-2200] [2201-2400] [2401-2600] [2601-2800] [2801-3000] [3001-3200] [3201-3400] [3401-3600] [3601-3800] [3801-4000] [4001-4200] [4201-4400] [4401-4600] [4601-4800] [4801-5000] [5001-5200] [5201-5400] [5401-5600] [5601-5800] [5801-6000] [6001-6200] [6201-6400] [6401-6600] [6601-6800] [6801-7000] [7001-7200] [7201-7400] [7401-7600] [7601-7800] [7801-8000] [8001-8200] [8201-8400] [8401-8600] [8601-8800] [8801-9000] [9001-9200] [9201-9400] [9401-9600] [9601-9800] [9801-10000] [10001-10200] [10201-10400] [10401-10600] [10601-10800] [10801-11000] [11001-11200] [11201-11400] [11401-11600] [11601-11800] [11801-12000] [12001-12200] [12201-12400] [12401-12600] [12601-12800] [12801-13000] [13001-13200] [13201-13400] [13401-13600] [13601-13800] [13801-14000] [14001-14200] [14201-14400] [14401-14600] [14601-14800] [14801-15000] [15001-15200] [15201-15400] [15401-15600] [15601-15800] [15801-16000] [16001-16200] [16201-16400] [16401-16600] [16601-16800] [16801-17000] [17001-17200] [17201-17400] [17401-17600] [17601-17800] [17801-18000] [18001-18200] [18201-18400] [18401-18600] [18601-18800] [18801-19000] [19001-19200] [19201-19400] [19401-19600] [19601-19800] [19801-20000] [20001-20200] [20201-20400] [20401-20600] [20601-20800] [20801-21000] [21001-21200] [21201-21400] [21401-21600] [21601-21800] [21801-22000] [22001-22200] [22201-22400] [22401-22600] [22601-22800] [22801-23000] [23001-23200] [23201-23400] [23401-23600] [23601-23800] [23801-24000] [24001-24200] [24201-24400] [24401-24600] [24601-24800] [24801-25000] [25001-25200] [25201-25400] [25401-25600] [25601-25800] [25801-26000] [26001-26200] [26201-26400] [26401-26600] [26601-26800] [26801-27000] [27001-27200] [27201-27400] [27401-27600] [27601-27800] [27801-28000] [28001-28200] [28201-28400] [28401-28600] [28601-28800] [28801-29000] [29001-29200] [29201-29400] [29401-29600] [29601-29800] [29801-30000] [30001-30200] [30201-30400] [30401-30600] [30601-30800] [30801-31000] [31001-31200] [31201-31400] [31401-31600] [31601-31800] [31801-32000] [32001-32200] [32201-32400] [32401-32600] [32601-32800] [32801-33000] [33001-33200] [33201-33400] [33401-33600] [33601-33800] [33801-34000] [34001-34200] [34201-34400] [34401-34600] [34601-34800] [34801-35000] [35001-35200] [35201-35400] [35401-35600] [35601-35800] [35801-36000] [36001-36200] [36201-36400] [36401-36600] [36601-36800] [36801-37000] [37001-37200] [37201-37400] [37401-37600] [37601-37800] [37801-38000] [38001-38200] [38201-38400] [38401-38600] [38601-38800] [38801-39000] [39001-39200] [39201-39400] [39401-39600] [39601-39800] [39801-40000] [40001-40200] [40201-40400] [40401-40600] [40601-40800] [40801-41000] [41001-41200] [41201-41400] [41401-41600] [41601-41800] [41801-42000] [42001-42200] [42201-42400] [42401-42600] [42601-42800] [42801-43000] [43001-43200] [43201-43400] [43401-43600] [43601-43800] [43801-44000] [44001-44200] [44201-44400] [44401-44600] [44601-44800] [44801-45000] [45001-45200] [45201-45400] [45401-45600] [45601-45800] [45801-46000] [46001-46200] [46201-46400] [46401-46600] [46601-46800] [46801-47000] [47001-47200] [47201-47400] [47401-47600] [47601-47800] [47801-48000] [48001-48200] [48201-48400] [48401-48600] [48601-48800] [48801-49000] [49001-49200] [49201-49400] [49401-49600] [49601-49800] [49801-50000] [50001-50200] [50201-50388]